| time (UTC) | temp C | wind direction | speed KPH | gust KPH | rain 1hr cm | rain 24hr cm | rain mn cm | humidity % | barometer mb |
| 20260509191057 | 28 | 316 | 3.2 | 66.0 | 0.00 | 0.00 | 0.00 | 100 | 1009.3 |
| 20260509190018 | 28 | 327 | 4.8 | 80.5 | 0.00 | 0.00 | 0.00 | 100 | 1009.3 |
| 20260509185017 | 28 | 315 | 4.8 | 77.2 | 0.00 | 0.00 | 0.00 | 100 | 1009.2 |
| 20260509184018 | 28 | 313 | 3.2 | 43.5 | 0.00 | 0.00 | 0.00 | 100 | 1009.1 |
| 20260509183019 | 28 | 322 | 3.2 | 64.4 | 0.00 | 0.00 | 0.00 | 100 | 1009.3 |
| 20260509182101 | 28 | 308 | 3.2 | 66.0 | 0.00 | 0.00 | 0.00 | 100 | 1009.6 |
| 20260509181016 | 28 | 315 | 3.2 | 64.4 | 0.00 | 0.00 | 0.00 | 100 | 1009.8 |
| 20260509180016 | 28 | 319 | 3.2 | 29.0 | 0.00 | 0.00 | 0.00 | 100 | 1009.8 |
| 20260509175017 | 28 | 312 | 4.8 | 69.2 | 0.00 | 0.00 | 0.00 | 100 | 1009.7 |
| 20260509174039 | 28 | 336 | 4.8 | 69.2 | 0.00 | 0.00 | 0.00 | 100 | 1009.6 |
| 20260509173019 | 28 | 329 | 4.8 | 70.8 | 0.00 | 0.00 | 0.00 | 100 | 1009.7 |
| 20260509172019 | 28 | 340 | 3.2 | 57.9 | 0.00 | 0.00 | 0.00 | 100 | 1009.8 |
| 20260509171020 | 29 | 326 | 3.2 | 64.4 | 0.00 | 0.00 | 0.00 | 100 | 1009.9 |
| 20260509170018 | 29 | 316 | 3.2 | 67.6 | 0.00 | 0.00 | 0.00 | 100 | 1010.1 |
| 20260509165016 | 29 | 333 | 3.2 | 66.0 | 0.00 | 0.00 | 0.00 | 100 | 1010.1 |
| 20260509164018 | 29 | 310 | 3.2 | 64.4 | 0.00 | 0.00 | 0.00 | 100 | 1010.1 |
| 20260509163018 | 29 | 336 | 3.2 | 64.4 | 0.00 | 0.00 | 0.00 | 100 | 1010.3 |
| 20260509162041 | 29 | 340 | 3.2 | 48.3 | 0.00 | 0.00 | 0.00 | 100 | 1010.4 |
| 20260509161040 | 30 | 328 | 4.8 | 69.2 | 0.00 | 0.00 | 0.00 | 100 | 1010.6 |
| 20260509160016 | 30 | 318 | 3.2 | 67.6 | 0.00 | 0.00 | 0.00 | 100 | 1010.6 |
| 20260509155017 | 30 | 324 | 4.8 | 74.0 | 0.00 | 0.00 | 0.00 | 100 | 1010.7 |
| 20260509154058 | 30 | 307 | 4.8 | 69.2 | 0.00 | 0.00 | 0.00 | 100 | 1010.6 |
| 20260509153018 | 30 | 330 | 4.8 | 69.2 | 0.00 | 0.00 | 0.00 | 100 | 1010.5 |
| 20260509152142 | 30 | 327 | 3.2 | 66.0 | 0.00 | 0.00 | 0.00 | 100 | 1010.4 |
| 20260509151020 | 30 | 330 | 4.8 | 74.0 | 0.00 | 0.00 | 0.00 | 100 | 1010.3 |
| 20260509150016 | 30 | 324 | 3.2 | 67.6 | 0.00 | 0.00 | 0.00 | 100 | 1010.1 |
| 20260509145018 | 30 | 330 | 4.8 | 67.6 | 0.00 | 0.00 | 0.00 | 100 | 1009.9 |
| 20260509144018 | 30 | 316 | 4.8 | 69.2 | 0.00 | 0.00 | 0.00 | 100 | 1009.8 |
| 20260509143019 | 30 | 331 | 4.8 | 69.2 | 0.00 | 0.00 | 0.00 | 100 | 1009.5 |
| 20260509142019 | 30 | 332 | 4.8 | 70.8 | 0.00 | 0.00 | 0.00 | 100 | 1009.4 |
| 20260509141020 | 30 | 332 | 4.8 | 74.0 | 0.00 | 0.00 | 0.00 | 100 | 1009.4 |
| 20260509140016 | 30 | 332 | 3.2 | 66.0 | 0.00 | 0.00 | 0.00 | 100 | 1009.3 |
| 20260509135018 | 31 | 331 | 4.8 | 69.2 | 0.00 | 0.00 | 0.00 | 100 | 1009.0 |
| 20260509134020 | 31 | 312 | 3.2 | 32.2 | 0.00 | 0.00 | 0.00 | 100 | 1008.7 |
| 20260509133018 | 31 | 314 | 4.8 | 69.2 | 0.00 | 0.00 | 0.00 | 100 | 1008.5 |
| 20260509132059 | 31 | 315 | 4.8 | 69.2 | 0.00 | 0.00 | 0.00 | 100 | 1008.3 |
| 20260509131020 | 31 | 308 | 3.2 | 27.4 | 0.00 | 0.00 | 0.00 | 100 | 1008.1 |
| 20260509130036 | 31 | 337 | 4.8 | 67.6 | 0.00 | 0.00 | 0.00 | 100 | 1007.9 |
| 20260509125016 | 31 | 343 | 4.8 | 74.0 | 0.00 | 0.00 | 0.00 | 100 | 1007.6 |
| 20260509124018 | 31 | 306 | 4.8 | 67.6 | 0.00 | 0.00 | 0.00 | 100 | 1007.6 |
| 20260509123018 | 31 | 330 | 4.8 | 69.2 | 0.00 | 0.00 | 0.00 | 100 | 1007.5 |
| 20260509122040 | 31 | 330 | 3.2 | 62.8 | 0.00 | 0.00 | 0.00 | 100 | 1007.4 |
| 20260509121020 | 31 | 320 | 3.2 | 66.0 | 0.00 | 0.00 | 0.00 | 100 | 1007.3 |
| 20260509120036 | 31 | 287 | 3.2 | 64.4 | 0.00 | 0.00 | 0.00 | 100 | 1007.1 |
| 20260509115016 | 31 | 291 | 3.2 | 64.4 | 0.00 | 0.00 | 0.00 | 100 | 1006.9 |
| 20260509114018 | 31 | 262 | 4.8 | 70.8 | 0.00 | 0.00 | 0.00 | 100 | 1006.8 |
| 20260509113038 | 31 | 315 | 3.2 | 62.8 | 0.00 | 0.00 | 0.00 | 100 | 1006.7 |
| 20260509112019 | 31 | 312 | 4.8 | 69.2 | 0.00 | 0.00 | 0.00 | 100 | 1006.5 |
| 20260509111019 | 32 | 310 | 4.8 | 67.6 | 0.00 | 0.00 | 0.00 | 100 | 1006.5 |
| 20260509110015 | 32 | 287 | 4.8 | 67.6 | 0.00 | 0.00 | 0.00 | 100 | 1006.5 |
| 20260509105016 | 32 | 263 | 4.8 | 75.6 | 0.00 | 0.00 | 0.00 | 100 | 1006.5 |
| 20260509104018 | 32 | 302 | 3.2 | 66.0 | 0.00 | 0.00 | 0.00 | 100 | 1006.5 |
| 20260509103020 | 32 | 271 | 3.2 | 66.0 | 0.00 | 0.00 | 0.00 | 100 | 1006.5 |
| 20260509102019 | 32 | 274 | 4.8 | 69.2 | 0.00 | 0.00 | 0.00 | 100 | 1006.7 |
| 20260509101020 | 32 | 281 | 3.2 | 67.6 | 0.00 | 0.00 | 0.00 | 100 | 1006.7 |
| 20260509100016 | 32 | 284 | 3.2 | 54.7 | 0.00 | 0.00 | 0.00 | 100 | 1006.8 |
| 20260509095016 | 32 | 250 | 4.8 | 69.2 | 0.00 | 0.00 | 0.00 | 100 | 1006.7 |
| 20260509094017 | 32 | 297 | 4.8 | 69.2 | 0.00 | 0.00 | 0.00 | 100 | 1006.8 |
| 20260509093020 | 32 | 284 | 4.8 | 70.8 | 0.00 | 0.00 | 0.00 | 100 | 1007.0 |
| 20260509092019 | 32 | 279 | 4.8 | 74.0 | 0.00 | 0.00 | 0.00 | 100 | 1007.1 |
| 20260509091040 | 32 | 269 | 4.8 | 72.4 | 0.00 | 0.00 | 0.00 | 100 | 1007.3 |
| 20260509090020 | 32 | 275 | 3.2 | 62.8 | 0.00 | 0.00 | 0.00 | 100 | 1007.4 |
| 20260509085016 | 32 | 271 | 3.2 | 67.6 | 0.00 | 0.00 | 0.00 | 100 | 1007.4 |
| 20260509084017 | 32 | 293 | 3.2 | 66.0 | 0.00 | 0.00 | 0.00 | 100 | 1007.4 |
| 20260509083018 | 33 | 281 | 3.2 | 66.0 | 0.00 | 0.00 | 0.00 | 100 | 1007.4 |
| 20260509082019 | 32 | 268 | 4.8 | 72.4 | 0.00 | 0.00 | 0.00 | 100 | 1007.6 |
| 20260509081020 | 32 | 272 | 4.8 | 70.8 | 0.00 | 0.00 | 0.00 | 100 | 1007.6 |
| 20260509080021 | 32 | 290 | 4.8 | 70.8 | 0.00 | 0.00 | 0.00 | 100 | 1007.7 |
| 20260509075016 | 32 | 281 | 3.2 | 64.4 | 0.00 | 0.00 | 0.00 | 100 | 1008.0 |
| 20260509074018 | 32 | 282 | 4.8 | 70.8 | 0.00 | 0.00 | 0.00 | 100 | 1008.1 |
| 20260509073018 | 32 | 272 | 4.8 | 72.4 | 0.00 | 0.00 | 0.00 | 100 | 1008.1 |
| 20260509072020 | 32 | 286 | 4.8 | 67.6 | 0.00 | 0.00 | 0.00 | 100 | 1008.3 |
| 20260509071019 | 32 | 286 | 4.8 | 70.8 | 0.00 | 0.00 | 0.00 | 100 | 1008.4 |
| 20260509070015 | 32 | 271 | 3.2 | 53.1 | 0.00 | 0.00 | 0.00 | 100 | 1008.5 |
| 20260509065036 | 32 | 307 | 3.2 | 66.0 | 0.00 | 0.00 | 0.00 | 100 | 1008.6 |
| 20260509064017 | 32 | 287 | 4.8 | 69.2 | 0.00 | 0.00 | 0.00 | 100 | 1008.7 |
| 20260509063019 | 32 | 271 | 3.2 | 59.5 | 0.00 | 0.00 | 0.00 | 100 | 1008.9 |
| 20260509062039 | 32 | 334 | 3.2 | 64.4 | 0.00 | 0.00 | 0.00 | 100 | 1009.0 |
| 20260509061019 | 33 | 329 | 4.8 | 67.6 | 0.00 | 0.00 | 0.00 | 100 | 1009.2 |
| 20260509060020 | 33 | 302 | 4.8 | 69.2 | 0.00 | 0.00 | 0.00 | 100 | 1009.2 |
| 20260509055017 | 34 | 276 | 4.8 | 75.6 | 0.00 | 0.00 | 0.00 | 100 | 1009.3 |
| 20260509054018 | 34 | 288 | 3.2 | 59.5 | 0.00 | 0.00 | 0.00 | 100 | 1009.5 |
| 20260509053018 | 34 | 268 | 4.8 | 69.2 | 0.00 | 0.00 | 0.00 | 100 | 1009.8 |
| 20260509052019 | 34 | 297 | 4.8 | 69.2 | 0.00 | 0.00 | 0.00 | 100 | 1009.9 |
| 20260509051019 | 33 | 310 | 4.8 | 70.8 | 0.00 | 0.00 | 0.00 | 100 | 1010.1 |
| 20260509050040 | 33 | 315 | 4.8 | 74.0 | 0.00 | 0.00 | 0.00 | 100 | 1010.4 |
| 20260509045039 | 33 | 317 | 4.8 | 69.2 | 0.00 | 0.00 | 0.00 | 100 | 1010.5 |
| 20260509044017 | 33 | 325 | 4.8 | 74.0 | 0.00 | 0.00 | 0.00 | 100 | 1010.6 |
| 20260509043018 | 32 | 276 | 4.8 | 74.0 | 0.00 | 0.00 | 0.00 | 100 | 1010.8 |
| 20260509042039 | 32 | 261 | 4.8 | 67.6 | 0.00 | 0.00 | 0.00 | 100 | 1010.8 |
| 20260509041020 | 32 | 309 | 4.8 | 67.6 | 0.00 | 0.00 | 0.00 | 100 | 1010.9 |
| 20260509040016 | 32 | 318 | 3.2 | 64.4 | 0.00 | 0.00 | 0.00 | 100 | 1011.0 |
| 20260509035017 | 32 | 295 | 3.2 | 53.1 | 0.00 | 0.00 | 0.00 | 100 | 1011.2 |
| 20260509034019 | 32 | 283 | 4.8 | 74.0 | 0.00 | 0.00 | 0.00 | 100 | 1011.3 |
| 20260509033018 | 32 | 300 | 4.8 | 67.6 | 0.00 | 0.00 | 0.00 | 100 | 1011.6 |
| 20260509032019 | 31 | 279 | 4.8 | 75.6 | 0.00 | 0.00 | 0.00 | 100 | 1011.8 |
| 20260509031020 | 31 | 263 | 4.8 | 70.8 | 0.00 | 0.00 | 0.00 | 100 | 1012.0 |
| 20260509030015 | 31 | 289 | 4.8 | 69.2 | 0.00 | 0.00 | 0.00 | 100 | 1012.2 |
| 20260509025018 | 31 | 311 | 4.8 | 69.2 | 0.00 | 0.00 | 0.00 | 100 | 1012.3 |
| 20260509024018 | 31 | 351 | 4.8 | 77.2 | 0.00 | 0.00 | 0.00 | 100 | 1012.4 |
| 20260509023019 | 31 | 11 | 3.2 | 32.2 | 0.00 | 0.00 | 0.00 | 100 | 1012.4 |
| 20260509022019 | 30 | 17 | 3.2 | 67.6 | 0.00 | 0.00 | 0.00 | 100 | 1012.5 |
| 20260509021019 | 30 | 20 | 4.8 | 69.2 | 0.00 | 0.00 | 0.00 | 100 | 1012.4 |
| 20260509020021 | 30 | 25 | 4.8 | 69.2 | 0.00 | 0.00 | 0.00 | 100 | 1012.3 |
| 20260509015016 | 29 | 17 | 3.2 | 67.6 | 0.00 | 0.00 | 0.00 | 100 | 1012.3 |
| 20260509014017 | 29 | 329 | 4.8 | 69.2 | 0.00 | 0.00 | 0.00 | 100 | 1012.2 |
| 20260509013018 | 28 | 264 | 4.8 | 70.8 | 0.00 | 0.00 | 0.00 | 100 | 1012.0 |
| 20260509012019 | 28 | 271 | 4.8 | 72.4 | 0.00 | 0.00 | 0.00 | 100 | 1012.0 |
| 20260509011040 | 27 | 320 | 4.8 | 69.2 | 0.00 | 0.00 | 0.00 | 100 | 1012.0 |
| 20260509010020 | 27 | 300 | 4.8 | 75.6 | 0.00 | 0.00 | 0.00 | 100 | 1012.0 |
| 20260509005016 | 27 | 24 | 3.2 | 54.7 | 0.00 | 0.00 | 0.00 | 100 | 1011.9 |
| 20260509004017 | 27 | 327 | 3.2 | 62.8 | 0.00 | 0.00 | 0.00 | 100 | 1011.9 |
| 20260509003018 | 27 | 346 | 3.2 | 66.0 | 0.00 | 0.00 | 0.00 | 100 | 1011.7 |
| 20260509002018 | 26 | 351 | 3.2 | 66.0 | 0.00 | 0.00 | 0.00 | 100 | 1011.6 |
| 20260509001021 | 26 | 347 | 4.8 | 70.8 | 0.00 | 0.00 | 0.00 | 100 | 1011.4 |
| 20260509000020 | 26 | 338 | 4.8 | 72.4 | 0.00 | 0.00 | 0.00 | 100 | 1011.1 |
| 20260508235016 | 26 | 329 | 4.8 | 69.2 | 0.00 | 0.00 | 0.00 | 100 | 1010.9 |
| 20260508234038 | 26 | 309 | 3.2 | 67.6 | 0.00 | 0.00 | 0.00 | 100 | 1010.8 |
| 20260508233018 | 26 | 333 | 4.8 | 70.8 | 0.00 | 0.00 | 0.00 | 100 | 1010.7 |
| 20260508232020 | 26 | 343 | 3.2 | 64.4 | 0.00 | 0.00 | 0.00 | 100 | 1010.6 |
| 20260508231020 | 26 | 340 | 3.2 | 66.0 | 0.00 | 0.00 | 0.00 | 100 | 1010.4 |
| 20260508230020 | 26 | 343 | 3.2 | 64.4 | 0.00 | 0.00 | 0.00 | 100 | 1010.1 |
| 20260508225016 | 26 | 340 | 3.2 | 66.0 | 0.00 | 0.00 | 0.00 | 100 | 1009.9 |
| 20260508224017 | 26 | 337 | 4.8 | 70.8 | 0.00 | 0.00 | 0.00 | 100 | 1009.8 |
| 20260508223018 | 26 | 342 | 4.8 | 70.8 | 0.00 | 0.00 | 0.00 | 100 | 1009.7 |
| 20260508222019 | 26 | 344 | 4.8 | 67.6 | 0.00 | 0.00 | 0.00 | 100 | 1009.6 |
| 20260508221020 | 26 | 341 | 4.8 | 69.2 | 0.00 | 0.00 | 0.00 | 100 | 1009.6 |
| 20260508220021 | 26 | 339 | 4.8 | 75.6 | 0.00 | 0.00 | 0.00 | 100 | 1009.5 |
| 20260508215016 | 26 | 342 | 4.8 | 70.8 | 0.00 | 0.00 | 0.00 | 100 | 1009.5 |
| 20260508214017 | 26 | 331 | 3.2 | 45.1 | 0.00 | 0.00 | 0.00 | 100 | 1009.4 |
| 20260508213020 | 26 | 341 | 3.2 | 48.3 | 0.00 | 0.00 | 0.00 | 100 | 1009.4 |
| 20260508212019 | 26 | 342 | 3.2 | 56.3 | 0.00 | 0.00 | 0.00 | 100 | 1009.3 |
| 20260508211020 | 26 | 340 | 4.8 | 69.2 | 0.00 | 0.00 | 0.00 | 100 | 1009.4 |
| 20260508210020 | 26 | 345 | 4.8 | 67.6 | 0.00 | 0.00 | 0.00 | 100 | 1009.5 |
| 20260508205016 | 26 | 328 | 4.8 | 77.2 | 0.00 | 0.00 | 0.00 | 100 | 1009.4 |
| 20260508204017 | 26 | 339 | 4.8 | 69.2 | 0.00 | 0.00 | 0.00 | 100 | 1009.5 |
| 20260508203018 | 26 | 343 | 4.8 | 67.6 | 0.00 | 0.00 | 0.00 | 100 | 1009.6 |
| 20260508202021 | 26 | 344 | 4.8 | 70.8 | 0.00 | 0.00 | 0.00 | 100 | 1009.7 |
| 20260508201100 | 26 | 345 | 3.2 | 67.6 | 0.00 | 0.00 | 0.00 | 100 | 1009.8 |
| 20260508200021 | 26 | 337 | 3.2 | 61.2 | 0.00 | 0.00 | 0.00 | 100 | 1009.8 |
| 20260508195016 | 26 | 336 | 3.2 | 64.4 | 0.00 | 0.00 | 0.00 | 100 | 1009.8 |
| 20260508194018 | 26 | 341 | 4.8 | 67.6 | 0.00 | 0.00 | 0.00 | 100 | 1009.7 |
| 20260508193018 | 27 | 341 | 4.8 | 69.2 | 0.00 | 0.00 | 0.00 | 100 | 1009.6 |
| 20260508192018 | 26 | 342 | 4.8 | 67.6 | 0.00 | 0.00 | 0.00 | 100 | 1009.6 |